Preview of NWS' New Version of Forecast
This preview is not operational and should not be used for support decisions.

Regional Weather Roundup (RWR)

Issued by National Weather Service (NWS)

                            
000
ASUS43 KDTX 200110
RWRMI 
MICHIGAN HOURLY REGIONAL WEATHER ROUNDUP
NATIONAL WEATHER SERVICE DETROIT/PONTIAC MI
900 PM EDT WED JUN 19 2019

NOTE: "FAIR" INDICATES FEW OR NO CLOUDS BELOW 12,000 FEET WITH NO
SIGNIFICANT WEATHER AND/OR OBSTRUCTION TO VISIBILITY.

MIZ047>049-052>055-059>063-066>070-074>076-081>083-200200-
SOUTHEAST LOWER MICHIGAN
  
CITY           SKY/WX    TMP DP  RH WIND       PRES   REMARKS
ADRIAN         MOCLDY    72  57  59 E5        29.68S                  
ALMA           FAIR      67  58  73 NE9       29.72F                  
ANN ARBOR      CLOUDY    71  61  70 SE5       29.68F                  
BAD AXE        CLOUDY    59  53  80 NE5       29.74S                  
CARO           MOCLDY    64  60  88 CALM      29.72S                  
DETROIT CITY   MOCLDY    72  60  66 E12       29.69S                  
DETROIT        CLOUDY    72  56  57 CALM      29.68F                  
FLINT          MOCLDY    70  64  81 NE6       29.70F                  
GROSSE ILE     FAIR      69  60  73 CALM      29.68S                  
HILLSDALE      CLOUDY    70  65  86 CALM      29.68F                  
HOWELL         MOCLDY    68  63  83 NE3       29.70F                  

CITY           SKY/WX    TMP DP  RH WIND       PRES   REMARKS
JACKSON        MOCLDY    70  66  87 NE6       29.68F                  
LAMBERTVILLE   FAIR      71  62  71 CALM      29.68S                  
LANSING        CLOUDY    68  64  87 NE7       29.70F                  
LAPEER         CLOUDY    67  64  90 NE3       29.72S                  
MASON          CLOUDY    69  66  89 NE6       29.70S                  
MONROE         FAIR      71  65  82 SE5       29.67S                  
MT. CLEMENS    CLOUDY    69  63  82 NE6       29.69S                  
PONTIAC        MOCLDY    71  65  81 NE7       29.69S                  
PORT HOPE        N/A     54  51  90 N3        29.74S                  
PORT HURON     CLOUDY    63  54  72 N5        29.72S                  
TRI CITIES     CLOUDY    64  60  87 NE10      29.73S                  
MIDLAND        CLOUDY    62  57  81 NE5       29.73S                  
TROY           CLOUDY    73  61  66 NE9       29.72R                  
SAGINAW HB     FAIR      66  61  82 NE7       29.72S                  
$$
MIZ043>046-050>051-056>058-064>065-071>073-077>080-200200-
SOUTHWEST LOWER MICHIGAN
  
CITY           SKY/WX    TMP DP  RH WIND       PRES   REMARKS
BATTLE CREEK   CLOUDY    70  68  93 CALM      29.69S                  
BENTON HARBOR  FAIR      62  58  86 VRB3      29.67S                  
BIG RAPIDS     CLOUDY    65  62  88 CALM      29.72S                  
COLDWATER      CLOUDY    68  68 100 NE5       29.67S FOG              
FREMONT        CLOUDY    67  60  80 NE3       29.70F                  
HOLLAND        FAIR      69  62  78 CALM      29.68F                  
GRAND RAPIDS   CLOUDY    72  62  71 NE13      29.68F                  
IONIA          MOCLDY    68  58  71 NE8       29.70S                  
KALAMAZOO      CLOUDY    70  66  87 NE3       29.68S                  
LUDINGTON      CLOUDY    61  55  81 CALM      29.72S                  
MARSHALL       CLOUDY    69  69 100 CALM      29.68F                  
MOUNT PLEASANT CLOUDY    65  60  81 E5        29.73S                  
MUSKEGON       LGT RAIN  69  61  75 N7        29.70S                  
SOUTH HAVEN    MOCLDY    63  60  91 CALM      29.67F                  
$$
MIZ016>042-200200-
NORTHERN LOWER MICHIGAN
  
CITY           SKY/WX    TMP DP  RH WIND       PRES   REMARKS
ALPENA         FAIR      61  54  77 SE5       29.76S                  
BEAVER ISLAND  FAIR      59  54  84 NW3       29.78R                  
BELLAIRE       FAIR      65  55  68 N3        29.75R                  
CADILLAC       CLOUDY    66  59  79 N7        29.73F                  
CHARLEVOIX     FAIR      60  56  85 CALM      29.79R                  
FRANKFORT      FAIR      63  55  73 CALM      29.75S                  
GAYLORD        CLOUDY    63  58  83 SE3       29.77R                  
GRAYLING       CLOUDY    64  59  86 E7        29.75R                  
HARBOR SPRINGS FAIR      66  55  66 NE6       29.76R                  
HOUGHTON LAKE  CLOUDY    66  58  75 CALM      29.75S                  
MANISTEE       FAIR      65  56  72 N5        29.73S                  
OSCODA         CLOUDY    57  51  81 CALM      29.75S                  
PELLSTON       FAIR      67  55  65 NE7       29.77R                  
ROGERS CITY    FAIR      60  53  79 CALM      29.78R                  
TRAVERSE CITY  CLOUDY    63  55  75 N5        29.74S                  
$$
MIZ007>008-015-200200-
EASTERN UPPER MICHIGAN
  
CITY           SKY/WX    TMP DP  RH WIND       PRES   REMARKS
KINROSS        FAIR      60  48  64 N10       29.78S                  
MACKINAC ISLAN FAIR      62  51  68 N9        29.77S                  
NEWBERRY       FAIR      60  45  56 N5        29.79S HAZE             
S. S. MARIE    FAIR      63  49  60 NW7       29.76F                  
MUNISING         N/A     52  47  83 NE5       29.82F                  
$$
MIZ004>006-011>014-085-200200-
CENTRAL UPPER MICHIGAN
  
CITY           SKY/WX    TMP DP  RH WIND       PRES   REMARKS
MANISTIQUE     FAIR      63  50  62 N8        29.78R                  
ESCANABA       FAIR      64  51  62 N7        29.79R                  
MENOMINEE      FAIR      63  55  75 CALM      29.79S                  
SAWYER-GWINN   CLEAR     61  46  59 N9        29.81F                  
$$
MIZ001>003-009>011-084-200200-
WESTERN UPPER MICHIGAN
  
CITY           SKY/WX    TMP DP  RH WIND       PRES   REMARKS
IRON MOUNTAIN  FAIR      65  41  41 NE8       29.79S                  
HOUGHTON       FAIR      66  40  38 CALM      29.83S                  
COPPER HARBOR    N/A     49  44  83 CALM      29.83F                  
IRONWOOD       FAIR      66  47  50 NE6       29.82F                  
$$

ABBREVIATIONS USED IN REMARKS
   TC - TEMPERATURE IN CELSIUS
  WCI - WIND CHILL INDEX
   HX - HEAT INDEX
  VSB - VISIBILITY